Regional Weather Roundup
Issued by NWS

Home | Current Version | Previous Version | Text Only | Print | Product List | Glossary Off
Versions: 1 2 3 4 5 6 7 8 9 10 11 12 13 14 15 16 17 18 19 20 21 22 23 24 25 26 27 28 29 30 31 32 33 34 35 36 37 38 39 40 41 42 43 44 45 46 47 48 49 50

000
ASUS43 KLSX 020907
RWRMO

WEATHER SUMMARY FOR MISSOURI
NATIONAL WEATHER SERVICE SPRINGFIELD MO
400 AM CDT THU OCT 02 2014

NOTE: "FAIR" INDICATES FEW OR NO CLOUDS BELOW 12,000 FEET WITH NO
       SIGNIFICANT WEATHER AND/OR OBSTRUCTIONS TO VISIBILITY.
       CURRENT SKY AND/OR WEATHER CONDITIONS ARE NOT AVAILABLE FOR
       CHILLICOTHE AND FARMINGTON.

MOZ001>031-035>038-043-044-053-054-021000-
...NORTHERN AND WESTERN MISSOURI...

CITY           SKY/WX    TMP DP  RH WIND       PRES   REMARKS
KANSAS CTY INT CLOUDY    68  64  87 SE10      29.72F
KANSAS C DTWN  CLOUDY    68  65  90 E5        29.72F
LEE`S SUMMIT   CLOUDY    65  63  93 E6        29.75S
ST JOSEPH      PTCLDY    61  60  97 NE5       29.72F
CHILLICOTHE      N/A     65  63  93 CALM      29.77S
KIRKSVILLE     CLOUDY    64  63  96 NE5       29.79F FOG

$$
MOZ066>068-077>081-088>096-101>105-021000-
...SOUTHWEST MISSOURI...

CITY           SKY/WX    TMP DP  RH WIND       PRES   REMARKS
SPRINGFIELD    CLEAR     72  68  87 S17       29.78S
JOPLIN         CLOUDY    74  69  85 S15       29.74S

$$
MOZ032>034-039>042-045>050-055>058-069>072-021000-
...CENTRAL MISSOURI...

CITY           SKY/WX    TMP DP  RH WIND       PRES   REMARKS
COLUMBIA       TSTM      64  62  93 E15G23    29.83R FOG
ROLLA          CLOUDY    70  66  87 E5        29.82S
SEDALIA        TSTM      65  63  93 SE17      29.78F
OSAGE BEACH    MOCLDY    66  63  88 NE8       29.80S

$$
MOZ051-052-059>065-021000-
...EAST CENTRAL MISSOURI...

CITY           SKY/WX    TMP DP  RH WIND       PRES   REMARKS
ST LOUIS INTL  LGT RAIN  68  63  84 N20G25    29.90R
SPIRIT OF STL  LGT RAIN  67  64  90 CALM      29.87R
ST CHARLES     CLOUDY    65  64  97 E5        29.87F FOG

$$
MOZ072>076-082>087-097>100-106>115-021000-
...SOUTH CENTRAL AND SOUTHEAST MISSOURI...

CITY           SKY/WX    TMP DP  RH WIND       PRES   REMARKS
CAPE GIRARDEAU CLOUDY    74  61  63 S10       29.88R
FARMINGTON     MOCLDY    70  63  78 S7        29.89F
POPLAR BLUFF   MOCLDY    68  62  81 SE3       29.86S
WEST PLAINS    CLEAR     69  66  90 SE8       29.86F

$$


USA.gov is the U.S. government's official web portal to all federal, state and local government web resources and services.